Apellis — 3FJT2 — position and weather

sailwx.info

Track history (hours):
 
Tides and Currents Weather Stations Pressure Air Temp Water Temp Dewpoint Dewpoint Depression Visibility Wind Speed Wind Dir Waves Ship Positions

Apellis

Last reported at 2014-Nov-24 16:17 UTC. Time now 2014-Nov-29 07:25 UTC.
Position N 36°34' E 026°40'.

Length 178 m; draft 9.9 m.

Type: Cargo ship. MMSI: 353847000.

Date/timePositionNaut miles runAvg speedWind from/ knotsBaromVisibWave heightAir tempDewpointWater temp
2014-Nov-24 16:17N 36°34' E 026°40'34 9.1
2014-Nov-24 12:33N 37°07' E 026°28'1010.1
2014-Nov-24 11:33N 37°12' E 026°17'10 9.8
2014-Nov-24 10:33N 37°17' E 026°06'10 9.5
2014-Nov-24 09:33N 37°21' E 025°55'9 8.6
2014-Nov-24 08:33N 37°28' E 025°50'1110.2
2014-Nov-24 07:29N 37°39' E 025°50'9 9.8
2014-Nov-24 06:33N 37°48' E 025°50'  
2014-Nov-16 07:07N 37°50' E 025°45'710.0
2014-Nov-16 06:28N 37°44' E 025°48'1010.3
2014-Nov-16 05:31N 37°35' E 025°52'9 9.6
2014-Nov-16 04:34N 37°26' E 025°56'1010.1
2014-Nov-16 03:33N 37°21' E 026°07'1110.9
2014-Nov-16 02:34N 37°16' E 026°19'1110.4
2014-Nov-16 01:33N 37°10' E 026°30'1110.1
2014-Nov-16 00:27N 37°05' E 026°42'1210.1
2014-Nov-15 23:16N 36°52' E 026°43'7 9.6
2014-Nov-15 22:34N 36°46' E 026°43'1210.0
2014-Nov-15 21:23N 36°34' E 026°45'2110.8
2014-Nov-15 19:24N 36°16' E 026°60'  
Track history (hours):
 
Tides and Currents Weather Stations Pressure Air Temp Water Temp Dewpoint Dewpoint Depression Visibility Wind Speed Wind Dir Waves Ship Positions

Apellis

Last reported at 2014-Nov-24 16:17 UTC. Time now 2014-Nov-29 07:25 UTC.
Position N 36°34' E 026°40'.

Length 178 m; draft 9.9 m.

Type: Cargo ship. MMSI: 353847000.

Date/timePositionNaut miles runAvg speedWind from/ knotsBaromVisibWave heightAir tempDewpointWater temp
2014-Nov-24 16:17N 36°34' E 026°40'34 9.1
2014-Nov-24 12:33N 37°07' E 026°28'1010.1
2014-Nov-24 11:33N 37°12' E 026°17'10 9.8
2014-Nov-24 10:33N 37°17' E 026°06'10 9.5
2014-Nov-24 09:33N 37°21' E 025°55'9 8.6
2014-Nov-24 08:33N 37°28' E 025°50'1110.2
2014-Nov-24 07:29N 37°39' E 025°50'9 9.8
2014-Nov-24 06:33N 37°48' E 025°50'  
2014-Nov-16 07:07N 37°50' E 025°45'710.0
2014-Nov-16 06:28N 37°44' E 025°48'1010.3
2014-Nov-16 05:31N 37°35' E 025°52'9 9.6
2014-Nov-16 04:34N 37°26' E 025°56'1010.1
2014-Nov-16 03:33N 37°21' E 026°07'1110.9
2014-Nov-16 02:34N 37°16' E 026°19'1110.4
2014-Nov-16 01:33N 37°10' E 026°30'1110.1
2014-Nov-16 00:27N 37°05' E 026°42'1210.1
2014-Nov-15 23:16N 36°52' E 026°43'7 9.6
2014-Nov-15 22:34N 36°46' E 026°43'1210.0
2014-Nov-15 21:23N 36°34' E 026°45'2110.8
2014-Nov-15 19:24N 36°16' E 026°60'  

Dump ship's entire track history